Location: Carrigahorig
(53.0625°N, 8.1439°W)
Time: 07:15:40
(UTC+00:00)

Daily predictions for brighter satellites

Satellite Brightness Start Highest point End
(mag) Time Altitude Azimuth Time Altitude Azimuth Time Altitude Azimuth
Ariane Rocket 3.9 20:59:58 10° SE 21:04:34 37° ENE 21:09:12 10° N
Cosmos 2278 3.9 21:00:39 10° NNW 21:06:23 68° NE 21:12:04 10° SE
Spot 2 Rocket 3.5 21:04:44 10° SSE 21:09:45 87° ENE 21:14:50 10° NNW
SL-16 R/B 2.3 21:04:44 10° NNW 21:10:27 86° NE 21:16:08 10° SSE
ERS-1 Rocket 3.9 21:07:59 10° S 21:12:49 47° W 21:17:40 10° NNW
SPOT 3 Rocket 3.9 21:10:06 10° SE 21:15:05 54° ENE 21:20:06 10° N
Cosmos 1607 4.1 21:09:14 10° SW 21:15:26 86° NW 21:21:46 10° NE
USA 186 1.3 21:13:34 10° SSE 21:16:18 81° ENE 21:19:05 10° NNW
USA 290 4.3 21:18:21 10° SE 21:19:39 12° E 21:20:58 10° ENE
CZ-4 R/B 3.5 21:17:38 10° SW 21:20:27 21° W 21:23:17 10° NW
MOS 1-B 4.5 21:14:56 10° SSE 21:20:44 85° WSW 21:26:36 10° NNW
Cosmos 2228 3.3 21:19:08 10° SSW 21:23:13 68° WNW 21:27:19 10° N
ISS -3.8 21:20:21 10° W 21:23:41 69° S 21:27:01 10° E
Cosmos 1980 Rocket 4.3 21:19:38 10° NW 21:23:56 23° WSW 21:28:14 10° SSW
Cosmos 1933 3.7 21:20:50 10° SSE 21:24:25 41° E 21:28:02 10° NNE
Cosmos 1461 2.9 21:21:51 10° SSW 21:25:22 42° SE 21:28:52 10° NE
SL-08 R/B 3.4 21:20:37 10° NNE 21:25:29 87° ESE 21:30:13 10° SSW
BREEZE-M DEB (TANK) 2.2 21:23:07 10° WSW 21:26:14 32° S 21:28:08 10° ESE
NOSS 3 (A) 3.9 21:24:34 10° NW 21:26:44 79° SW 21:29:11 12° SE
CZ-4B R/B 3.7 21:23:26 10° SE 21:28:06 56° ENE 21:32:52 10° N
Cosmos 1455 Rocket 4.4 21:24:38 10° SW 21:28:50 42° WNW 21:33:02 10° N
Cosmos 2061 Rocket 4.1 21:23:08 10° S 21:29:22 90° ESE 21:35:45 10° N
COSMOS 2406 3.3 21:24:18 10° SSW 21:29:58 65° ESE 21:35:39 10° NE
Terra 3.3 21:27:48 10° SSW 21:32:06 35° W 21:36:25 10° NNW
Cosmos 1992 Rocket 4.0 21:26:58 10° SSW 21:32:11 87° ESE 21:37:26 10° NNE
Meteor 1-20 Rocket 4.3 21:29:28 10° NNW 21:35:05 85° W 21:40:47 10° S
Okean O Rocket 2.1 21:30:56 10° S 21:35:10 59° W 21:39:26 10° NNW
Cosmos 1777 Rocket 4.1 21:33:16 10° NNW 21:38:33 74° ENE 21:43:21 12° SSE
Helios 1A Rocket 4.3 21:38:04 10° N 21:40:54 31° WNW 21:43:43 10° SW
Cosmos 2333 Rocket 2.5 21:35:14 10° NW 21:40:55 68° WSW 21:46:30 10° SSE
Cosmos 1437 Rocket 2.5 21:38:13 10° S 21:41:45 69° E 21:45:21 10° NNE
Cosmos 1544 Rocket 3.5 21:38:08 10° S 21:42:28 84° E 21:46:48 10° NNE
Okean 1-7 Rocket 3.8 21:42:01 10° N 21:46:27 57° ENE 21:50:19 13° SSE
Cosmos 1503 Rocket 4.1 21:43:24 10° NNW 21:48:37 70° ENE 21:53:04 14° SE
Cosmos 2360 Rocket 2.2 21:45:01 10° NNW 21:50:44 90° WSW 21:55:44 14° SSE
NOSS 3-3 (A) 4.0 21:48:17 10° SW 21:53:40 79° NW 22:00:15 10° NE
CZ-2C R/B 2.1 21:52:45 18° SSE 21:54:37 55° ENE 21:57:22 10° N
Okean-O 3.8 21:53:27 10° SSW 21:57:32 38° W 22:01:40 10° NNW
Cosmos 1486 Rocket 4.2 21:54:17 10° NNW 21:59:32 72° WSW 22:04:10 14° SSE
Cosmos 2333 4.3 21:55:08 10° NNW 22:00:53 89° WSW 22:05:42 15° SSE
Cosmos 1891 Rocket 4.5 21:56:16 10° S 22:02:23 89° W 22:08:27 10° N
Cosmos 2219 Rocket 2.3 21:57:45 10° NNW 22:03:26 76° NE 22:08:05 16° SE
Cosmos 1354 Rocket 4.2 21:58:23 10° NNW 22:03:38 66° ENE 22:07:46 16° SE
Cosmos 2034 Rocket 4.5 21:58:35 13° SSE 22:03:56 45° E 22:09:54 10° NNE
Cosmos 1805 2.9 22:03:46 10° NNW 22:07:01 69° W 22:09:31 16° S
USA 306 1.4 22:07:40 10° W 22:10:21 62° N 22:11:19 22° ENE
Cosmos 1825 Rocket 3.5 22:06:07 10° N 22:10:30 80° ENE 22:13:51 17° SSE
Cosmos 540 Rocket 4.1 22:07:44 14° SSE 22:11:39 38° ESE 22:16:23 10° NE
IRS-1C Rocket 4.3 22:08:06 13° S 22:12:53 71° WSW 22:18:11 10° NNW
Cosmos 220 Rocket 3.8 22:09:52 10° SSW 22:13:55 87° WNW 22:18:04 10° NNE
Nadezhda 4 Rocket 4.0 22:08:32 10° N 22:14:41 89° ENE 22:20:00 14° S
Helios 1A 4.2 22:13:27 10° NE 22:16:35 22° E 22:18:07 18° SE
Cosmos 1953 Rocket 3.8 22:12:59 10° N 22:17:17 57° ENE 22:20:10 20° SSE
RESURS DK-1 3.6 22:13:59 10° NNW 22:17:37 32° NE 22:20:45 13° ESE
Meteor 2-10 4.4 22:13:14 10° NNW 22:18:59 78° W 22:23:48 15° S
Aureole 1 Rocket 4.2 22:13:43 10° NNW 22:19:18 63° ENE 22:24:34 17° SE
Cosmos 1602 Rocket 4.5 22:17:35 10° NNW 22:21:42 44° W 22:25:44 10° SSW
Cosmos 2322 Rocket 2.7 22:17:41 10° NW 22:23:11 53° WSW 22:27:37 16° S
Cosmos 1707 3.2 22:23:33 23° ESE 22:24:09 24° E 22:26:33 10° NE
NOSS 3-3 (C) 4.4 22:20:56 10° WSW 22:26:24 65° NW 22:33:05 10° NE
CZ-4B R/B 3.9 22:24:40 11° SSW 22:27:30 31° W 22:30:40 10° NNW
TSX-5 4.0 22:24:58 10° NNW 22:27:59 44° NE 22:29:55 20° ESE
Cosmos 2082 Rocket 4.0 22:25:04 10° WSW 22:30:17 35° NW 22:35:30 10° NNE
Cosmos 2195 Rocket 4.5 22:26:41 10° N 22:32:57 86° E 22:37:38 18° S
Cosmos 2058 Rocket 3.8 22:30:59 22° SE 22:33:13 37° E 22:37:14 10° NNE
Cosmos 1076 Rocket 3.5 22:29:52 10° NNW 22:34:08 81° W 22:36:55 21° S
Cosmos 2098 Rocket 3.4 22:30:18 10° SSW 22:34:55 64° WNW 22:38:54 10° N
NOSS 3-4 (A) 4.4 22:30:32 10° NW 22:36:53 46° SW 22:42:31 17° S
Cosmos 2026 Rocket 4.1 22:30:32 10° N 22:36:58 79° ENE 22:41:40 19° SSE
Cosmos 44 3.5 22:32:00 10° NW 22:37:27 83° SW 22:41:01 21° SE
NOSS 3-4 (C) 4.4 22:31:10 10° NW 22:37:33 46° SW 22:43:10 17° S
Cosmos 2237 Rocket 3.6 22:36:33 10° NNW 22:41:40 33° NE 22:46:44 10° ESE
Ariane Rocket 4.0 22:39:06 12° SSW 22:43:24 41° W 22:48:13 10° NNW
CZ-4C R/B 4.1 22:42:44 10° WNW 22:47:22 33° N 22:53:14 10° NE
Cosmos 1470 3.5 22:45:04 10° N 22:48:04 31° ENE 22:49:19 23° ESE
ATLAS 2AS CENTAUR R/B 4.4 22:42:44 10° WNW 22:48:53 34° N 22:55:00 10° ENE
USA 290 2.7 22:50:30 12° SW 22:53:19 56° WNW 22:56:26 10° NNE
SL-16 R/B 4.1 22:49:49 10° NW 22:53:50 20° W 22:57:51 10° SW
ARIANE 5 R/B 3.6 22:52:41 19° ESE 22:55:18 37° ENE 22:59:26 10° N
COSMOS 2428 2.9 22:49:57 10° NNW 22:55:40 68° NE 22:59:35 21° SE
Cosmos 1763 Rocket 3.5 22:50:42 11° SSW 22:55:51 87° ESE 23:01:10 10° NNE
Meteor 1-26 Rocket 4.2 22:52:00 19° S 22:56:00 74° E 23:01:44 10° NNE
ALOS 2 3.8 22:54:46 18° ESE 22:57:23 32° ENE 23:01:19 10° N
Cosmos 1606 Rocket 4.3 22:54:10 11° SSW 22:58:12 50° WNW 23:02:25 10° N
Helios 1B rocket 2.2 22:58:18 31° SE 22:59:46 62° ENE 23:03:15 10° N
ISS -3.5 22:57:05 10° W 23:00:19 48° SSW 23:01:11 37° SSE
Cosmos 1898 Rocket 3.6 22:56:11 10° NNW 23:01:22 69° ENE 23:04:34 24° SE
Cosmos 1461 4.4 22:58:20 10° W 23:01:43 33° NW 23:05:05 10° NNE
Okean 1 3.9 22:59:53 15° SW 23:02:37 45° WNW 23:06:06 10° N
Cosmos 1726 Rocket 3.9 23:02:43 16° SSW 23:05:47 55° WNW 23:09:47 10° N
Meteor 2-2 Rocket 4.2 23:05:01 21° S 23:08:56 78° E 23:14:46 10° NNE
Cosmos 1536 2.6 23:06:14 10° NNW 23:09:56 74° W 23:11:30 32° S
IKONOS-2 4.3 23:07:07 10° NNE 23:11:17 82° ESE 23:13:29 27° S
CSL-04 DEB 4.1 23:10:19 34° SSE 23:11:44 74° ENE 23:15:24 10° NNW
Cosmos-2242 3.0 23:14:03 24° SSW 23:16:26 74° W 23:20:35 10° N
KORONAS-FOTON 3.3 23:17:08 39° S 23:18:17 82° E 23:21:42 10° NNE
Cosmos 2333 Rocket 4.4 23:21:27 10° WNW 23:24:09 14° W 23:26:51 10° SW
Cosmos 1092 Rocket 4.3 23:19:48 10° NNW 23:25:51 59° W 23:29:59 21° SSW
NOSS 0 Rocket 3.9 23:20:41 10° NNW 23:26:55 86° NE 23:30:48 24° SE
Cosmos 1766 4.1 23:25:29 10° NNW 23:28:22 31° W 23:29:29 24° SW
Cosmos 841 Rocket 3.8 23:27:23 29° SSE 23:29:42 48° ESE 23:34:45 10° NE
Cosmos 2297 Rocket 3.3 23:27:59 23° SE 23:29:52 28° ESE 23:34:35 10° NE
Cosmos 1842 2.5 23:29:26 50° S 23:30:09 84° E 23:33:19 10° NNE
Cosmos 1975 2.5 23:28:36 10° N 23:32:18 78° E 23:33:29 41° SSE
Cosmos 2360 Rocket 4.1 23:30:06 10° WNW 23:33:57 19° W 23:37:28 11° SW
Meteor 1-14 Rocket 4.1 23:28:37 10° NNW 23:34:12 87° WSW 23:37:12 28° S
Spot 4 3.8 23:36:12 31° SSE 23:38:32 85° ENE 23:43:22 10° NNW
Cosmos 2322 3.9 23:33:41 10° NW 23:39:19 61° WSW 23:42:12 28° S
Cosmos 1271 Rocket 2.3 23:39:41 45° SSW 23:40:38 89° WNW 23:44:02 10° NNE
Cosmos 2221 2.5 23:39:35 36° SSE 23:41:07 65° E 23:45:17 10° NNE
Cosmos 1812 Rocket 3.9 23:39:58 33° SSE 23:41:36 51° E 23:45:54 10° NNE
ACS3 Solar Sail 3.8 23:39:23 10° NE 23:42:32 14° E 23:45:41 10° ESE
Meteor 2-6 Rocket 4.4 23:40:37 24° SSW 23:44:27 85° WNW 23:50:27 10° NNE
MetOp-A 4.4 23:42:38 23° SE 23:45:18 48° ENE 23:49:44 10° N
Cosmos 2219 Rocket 3.8 23:42:27 10° NW 23:46:50 23° WSW 23:49:46 16° SW
NOSS 8 (E) 4.2 23:46:01 10° NW 23:48:56 68° NE 23:49:44 43° ESE
Helios 1A 3.8 23:47:42 10° N 23:51:27 43° WNW 23:53:49 20° SW
RESURS DK-1 3.0 23:51:19 10° NW 23:55:01 38° WSW 23:55:58 33° SSW
Cosmos 1707 4.3 23:55:02 14° WSW 23:56:23 18° WNW 23:58:28 10° NNW
